Lid_Strength_Index
12 12 12 12 12 12 13 12 16 15 14 11 9 8 8 7 7 7 7 6 6 6 6 7 7 8 9 9 9 9 10 11 11 11 12 12 12 13 13 13 14 14 14 15
15 12 12 14 12 12 12 12 12 11 12 8 7 7 8 7 7 7 7 7 7 6 5 6 7 8 9 9 9 9 10 10 10 11 11 12 13 13 13 14 13 13 13 12
17 13 14 17 14 12 11 10 11 13 11 8 9 8 8 7 7 7 7 6 6 5 5 6 6 7 9 9 9 10 10 10 11 11 11 12 12 13 14 13 13 13 12 12
16 14 21 12 9 9 11 10 9 9 9 8 8 8 7 6 7 7 6 6 5 6 5 5 6 7 8 9 9 10 10 10 10 10 11 11 12 12 14 13 13 13 12 12
17 17 14 12 10 10 11 12 8 9 9 8 8 8 8 6 5 6 5 5 5 5 6 5 6 7 8 9 9 10 10 10 10 10 11 11 11 12 13 13 12 12 12 14
15 19 20 13 9 7 8 15 9 8 9 9 8 13 10 6 6 5 5 5 5 5 4 5 6 7 8 9 9 10 10 10 10 10 10 10 11 11 12 12 11 12 13 14
16 17 15 10 8 7 15 14 8 8 8 8 10 8 7 5 6 5 4 4 4 5 5 5 6 7 8 9 10 9 9 9 10 10 10 10 11 11 11 11 12 13 14 15
15 17 19 8 8 12 9 8 7 7 7 7 7 6 6 6 6 6 5 5 5 6 6 5 6 6 8 9 8 9 9 9 10 10 10 10 11 11 11 12 13 14 15 16
13 14 9 7 8 6 6 7 7 7 6 6 6 7 6 6 5 5 5 5 6 7 7 7 6 7 8 9 8 9 9 10 10 10 10 10 11 12 12 13 13 14 15 16
13 10 9 8 6 6 6 6 6 6 6 6 7 7 7 6 5 5 5 5 6 7 7 8 7 7 8 9 9 9 10 10 10 10 11 11 11 11 11 12 13 13 14 15
11 9 8 7 6 6 6 6 6 6 6 6 7 7 7 6 6 5 4 6 7 6 7 8 8 8 9 8 8 9 9 9 10 11 11 12 12 12 11 10 11 12 12 13
13 8 8 7 6 5 6 6 5 5 6 5 5 6 5 5 5 5 5 6 6 7 7 9 9 9 9 8 8 9 9 10 11 11 12 12 12 13 9 10 9 9 10 12
9 7 6 6 6 6 6 6 6 6 6 6 5 5 5 5 5 6 5 6 7 8 8 8 9 9 9 8 8 9 10 10 11 11 12 12 12 12 13 11 9 9 9 9
6 6 7 6 7 5 5 5 5 6 6 6 6 5 5 5 4 5 4 5 6 8 9 9 9 10 9 8 9 9 10 11 11 11 12 12 12 12 12 13 13 14 9 9
6 5 6 5 5 5 5 6 6 7 6 6 5 5 5 5 5 5 5 6 7 8 9 9 10 11 9 9 10 11 11 12 12 13 12 12 13 13 12 12 12 13 13 13
5 5 5 6 6 5 6 6 7 7 6 6 5 5 5 5 5 5 5 6 8 9 9 10 11 11 10 9 10 11 11 12 12 12 13 12 13 13 13 13 14 13 13 14
7 7 6 7 6 6 6 5 5 5 5 6 6 6 5 5 7 7 5 8 10 10 10 10 11 10 10 10 10 11 11 11 12 12 12 12 13 13 13 13 13 14 14 15
5 6 6 6 6 6 6 6 7 7 8 8 9 8 9 9 8 9 10 10 12 12 12 12 12 11 11 11 10 11 11 11 12 12 12 13 13 12 12 12 12 13 15 14
6 7 7 6 6 6 7 8 8 9 9 9 10 13 13 12 9 10 10 10 11 11 12 12 12 11 11 11 11 11 11 12 12 12 12 14 13 13 12 12 12 13 13 14
7 8 8 8 8 8 8 8 9 9 9 10 10 11 11 11 10 9 9 10 10 10 11 11 11 11 11 11 11 11 11 12 12 13 13 13 14 14 13 13 12 12 12 12
7 8 10 9 9 9 10 9 9 9 9 9 10 10 10 10 10 9 10 11 11 11 11 11 10 11 10 11 11 11 11 12 12 12 13 14 14 13 13 13 12 12 11 11
8 9 10 10 10 10 10 10 9 9 9 9 9 10 10 11 11 12 12 10 11 11 11 11 10 10 10 10 11 11 11 11 12 12 12 12 12 12 12 12 12 11 11 12
8 8 9 12 12 11 12 11 11 10 10 9 10 10 11 11 12 12 13 11 10 13 12 12 13 12 10 10 10 11 11 11 11 11 11 11 11 11 11 12 12 12 14 14
8 8 8 9 11 10 10 11 11 11 11 11 10 10 10 11 15 13 13 12 12 14 14 14 13 13 12 10 10 10 11 11 11 11 12 12 11 12 13 13 13 13 14 15
8 8 9 9 8 8 8 9 11 11 11 10 10 10 11 10 13 13 13 14 14 14 14 15 14 13 11 10 10 10 10 11 11 11 12 12 13 14 14 14 15 15 15 16
8 8 8 8 8 7 7 9 11 12 12 11 11 16 16 15 13 14 14 14 13 13 12 11 10 10 9 10 11 11 11 11 11 13 14 15 15 15 15 15 16 16 17 18
7 8 8 8 7 7 7 7 10 10 11 12 14 11 12 17 17 15 16 14 13 11 10 10 10 10 10 10 11 11 11 12 14 14 15 15 15 15 16 17 18 19 21 22